Погода в Вознесенском

Россия / Республика Марий Эл     56°36′23″N   47°58′49″E
темп.,
°C
ветер,
м/с
пор.,
м/с
влажн.,
%
обл.,
%
осадки,
мм/ч
давл.,
гПа
погр.,
м
8 мая, сб
сб800:00+7сз2593100 0.0 1016300
03:00+5ссз229599 0.1 101747
06:00+7св1286100 0.0 1018172
09:00+11всв346311 0.0 1018985
12:00+11юв446467 0.0 1017668
15:00+14юв346268 0.0 10151069
18:00+13юв3678100 0.0 1014799
21:00+9вюв289410 0.1 1013156
9 мая, вс
вс900:00+11юв41582100 0.0 1011445
03:00+10юв41081100 0.0 1011267
06:00+11ююв41278100 0.0 1011374
09:00+16ююв51161100 0.0 1010643
12:00+19ю61252100 0.0 10111306
15:00+18ююв51158100 0.1 10111052
18:00+16ююз4967100 0.0 1011663
21:00+11зсз4695100 1.8 1014397
10 мая, пн
пн1000:00+9зсз3796100 2.3 1015387
03:00+7з3594100 2.3 1018434
06:00+6зсз369099 0.0 1021502
09:00+8сз4687100 0.1 1023776
12:00+9ссз4683100 0.1 1025825
15:00+10с5772100 0.1 1027976
18:00+10с476982 0.0 1028987
21:00+5ссв22861 0.0 102931
11 мая, вт
вт1100:00+4ссв24880 0.0 103080
03:00+4ссв25890 0.0 103182
06:00+7св36735 0.0 1032202
09:00+13св45475 0.0 1032983
12:00+16св343719 0.0 10311273
15:00+17св44365 0.0 10301286
18:00+15св36535 0.0 1030275
21:00+9всв22705 0.0 103224
12 мая, ср
ср1200:00+8всв24721 0.0 103251
03:00+7в22752 0.0 103225
06:00+10в24655 0.0 1032150
09:00+17в24435 0.0 1032776
12:00+20вюв243785 0.0 10311270
15:00+21вюв233917 0.0 10301332
18:00+19вюв23590 0.0 102977
21:00+13в22753 0.0 103013